Location: Newark
(50.0306°N, 2.3272°E)
Time: 17:10:27
(UTC+00:00)

Vanguard 1 Rocket - Pass Details

Date: 15 December 2019
Orbit: 650 x 4226 km, 34.3° (Epoch: 19 January)

Event Time Altitude Azimuth Distance (km) Brightness Sun altitude
Rises 22:34:48 0° 261° (W) 7,406 12.2 -59.9°
Reaches altitude 10° 22:41:04 10° 254° (WSW) 5,809 11.5 -60.4°
Enters shadow 22:44:29 16° 248° (WSW) 4,912 11.0 -60.7°
Maximum altitude 22:54:12 34° 198° (SSW) 2,821 - -61.4°
Drops below altitude 10° 23:01:46 10° 137° (SE) 3,318 - -61.9°
Sets 23:04:18 0° 127° (SE) 3,966 - -62.0°
